This demonstration page uses our WeatherBlox Daily Observations layout. Learn more.

Left ArrowRight Arrow

39.29038, -76.61219

Hourly Observations for May 26, 2022

Temp ( °F °C ) Dew Point ( °F °C ) Humidity (%) Winds ( mph kmh ) Pressure ( in mb ) Visibility ( mi km ) Precip ( " mm )
12:54 am 00:54 Cloudy 61 16.1 49 9.4 65 65 ESE 6 9 30.31 1026 10 16 0.00 0.00
1:54 am 01:54 Cloudy 61 16.1 51 10.6 70 70 ESE 8 13 30.29 1026 10 16 0.00 0.00
2:54 am 02:54 Cloudy 60 15.6 52 11.1 75 75 E 6 9 30.28 1026 10 16 0.00 0.00
3:54 am 03:54 Cloudy 60 15.6 52 11.1 75 75 E 6 9 30.27 1025 10 16 0.00 0.00
4:54 am 04:54 Cloudy 60 15.6 53 11.7 78 78 E 5 7 30.27 1025 10 16 0.00 0.00
5:54 am 05:54 Cloudy 60 15.6 54 12.2 80 80 E 3 6 30.28 1025 10 16 0.00 0.00
6:54 am 06:54 Cloudy 60 15.6 54 12.2 80 80 E 3 6 30.28 1025 8 13 0.00 0.00
7:40 am 07:40 Cloudy with Drizzle 60 15.6 55 12.8 84 84 ESE 6 9 30.29 1026 5 8 0.00 0.00
7:54 am 07:54 Cloudy with Haze 61 16.1 56 13.3 84 84 E 6 9 30.28 1026 6 10 0.00 0.00
8:54 am 08:54 Cloudy 62 16.7 56 13.3 80 80 E 7 11 30.27 1025 7 11 0.00 0.00
9:33 am 09:33 Cloudy 63 17.2 57 13.9 81 81 ESE 7 11 30.27 1025 7 11 0.00 0.00
9:54 am 09:54 Cloudy 64 17.8 57 13.9 78 78 ESE 7 11 30.27 1025 7 11 0.00 0.00
10:26 am 10:26 Cloudy 65 18.3 58 14.4 78 78 ESE 6 9 30.26 1025 7 11 0.00 0.00
10:54 am 10:54 Cloudy 66 18.9 58 14.4 75 75 VRB 5 7 30.25 1024 7 11 0.00 0.00
11:54 am 11:54 Cloudy 66 18.9 59 15 78 78 ENE 8 13 30.24 1024 7 11 0.00 0.00
12:13 pm 12:13 Cloudy 67 19.4 59 15 76 76 ENE 8 13 30.24 1024 7 11 0.00 0.00
12:54 pm 12:54 Cloudy 67 19.4 60 15.6 79 79 ENE 7 11 30.22 1024 7 11 0.00 0.00
1:28 pm 13:28 Cloudy 68 20 61 16.1 78 78 ENE 7 11 30.21 1023 7 11 0.00 0.00
1:54 pm 13:54 Cloudy 69 20.6 61 16.1 76 76 VRB 5 7 30.20 1023 7 11 0.00 0.00
2:54 pm 14:54 Cloudy 70 21.1 62 16.7 76 76 SE 7 11 30.17 1022 7 11 0.00 0.00
3:54 pm 15:54 Cloudy 73 22.8 63 17.2 71 71 SE 7 11 30.14 1021 10 16 0.00 0.00
4:54 pm 16:54 Cloudy 73 22.8 64 17.8 74 74 SE 7 11 30.12 1020 10 16 0.00 0.00
5:54 pm 17:54 Cloudy 72 22.2 64 17.8 76 76 SE 7 11 30.11 1020 10 16 0.00 0.00
6:23 pm 18:23 Cloudy 71 21.7 64 17.8 79 79 SE 6 9 30.10 1019 10 16 0.00 0.00
6:54 pm 18:54 Cloudy 71 21.7 64 17.8 79 79 SSE 5 7 30.11 1020 10 16 0.00 0.00
7:47 pm 19:47 Cloudy 70 21.1 65 18.3 84 84 SE 7 11 30.09 1019 10 16 0.00 0.00
7:54 pm 19:54 Cloudy 70 21.1 65 18.3 84 84 SSE 6 9 30.09 1019 10 16 0.00 0.00
8:05 pm 20:05 Cloudy 70 21.1 65 18.3 84 84 SE 8 13 30.09 1019 10 16 0.00 0.00
8:32 pm 20:32 Cloudy 70 21.1 65 18.3 84 84 VRB 6 9 30.09 1019 10 16 0.00 0.00
8:54 pm 20:54 Cloudy 69 20.6 65 18.3 87 87 S 3 6 30.08 1019 10 16 0.00 0.00
9:54 pm 21:54 Cloudy with Mist and Fog 69 20.6 66 18.9 90 90 SSE 5 7 30.09 1019 4 6 0.00 0.00
10:35 pm 22:35 Cloudy with Mist and Fog 68 20 66 18.9 93 93 SSW 3 6 30.08 1018 2 3 0.00 0.00
10:54 pm 22:54 Cloudy with Mist and Fog 68 20 66 18.9 93 93 S 3 6 30.08 1019 2 3 0.00 0.00
11:54 pm 23:54 Cloudy with Mist and Fog 68 20 66 18.9 93 93 SSE 3 6 30.06 1018 2 3 0.00 0.00

Powered by AerisWeather